COSMOS 2251 DEB, 34976

Orbit data source: Space-Track

COSMOS 2251 DEB, 34976 is space debris in LEO originally from a launch on Wed, 16 Jun 1993 UTC launched from the Plesetsk Missile And Space Complex (PKMTR). The debris from Iridium 33, an American commercial communications satellite, has been tracked extensively since its accidental collision with the defunct Russian satellite Cosmos 2251 in 2009. This event, occurring at high speed in low Earth orbit (LEO), generated thousands of pieces of space debris, significantly increasing the risk of further collisions. The Iridium 33 debris cloud has impacted space traffic management and orbital debris mitigation strategies, making it a subject of ongoing study in space situational awareness.

Loading next visibility...
Identifier
34976, 1993-036AFF
Orbit
LEO
Last TLE update
12 hours ago
Origin
Manufacturer
Unknown
Mission
Spacecraft
Bus & Motor
Unknown
Mass
Unknown
Launch date (UTC)
1993-06-16 (32 years ago)
Launch vehicle
Unknown
Launch site
Plesetsk Missile And Space Complex (PKMTR)
Object type
Payload
Rocket body
Debris
Shape & HBR
Unknown
Radar Cross Section
Small (<0.1 m²)

Expand to show TLE details & history

TLE from 12 hours ago
0 COSMOS 2251 DEB
1 34976U 93036AFF 25126.75688337  .00005659  00000-0  86522-3 0  9994
2 34976  74.0612  15.3308 0050629 125.8528 293.4940 14.73116641850316
Epoch: 2025-05-06T18:09Z
Definitive object data (Epoch: 2025-05-06T18:09:54.723Z)
Latitude
55.45603°
Longitude
-97.63002°
Altitude
645.965 km
Speed
7.548 km/s
True Right ascension
02h 38m 47s
True Declination
55° 17' 34"
Sunlit
Object was in daylight at TLE epoch
Visualization TLE readout
Latitude
63.4644°
Longitude
22.39047°
Altitude
627.015 km
Speed
7.57 km/s
Apparent Right ascension
04h 28m 38s
Apparent Declination
30° 56' 46"
Sunlit
Object is in daylight
Visualization observer readout
Local Sidereal Time
13:49:32
Azimuth
326.126° NNW
Elevation
-10.113°
Doppler factor
1
Orbital elements
Apogee altitude
684.293 km
Perigee altitude
613.141 km
Semi-major axis
7,026.854 km
Eccentricity
0.0050629
Inclination
74.0612°
RAAN
15.3308°
Arg. of periapsis
125.8528°
True anomaly
292.96059°
Mean anomaly
293.494°
Eccentric anomaly
293.22743°
Mean motion
3.6847 °/min
BSTAR
0.00086522
Orbital period
97.7 mins
Loading maneuver chart data...
Loading SW <> Apogee altitude chart data...

COSMOS 2251 DEB Visibility forecast

Observer location: undefined°, undefined°

Span
Click to sort rows by Start time (UTC) header in descending order
Start Az.
Max El. time (UTC)
Max El. Az.
Max El.
End time (UTC)
End Az.
6 mins2025-05-07 16:50:41.869Z148.75° SSE2025-05-07 16:53:41.869Z100.853° ESE22.822°2025-05-07 16:56:41.869Z51.706° ENE
6 mins2025-05-07 18:30:41.869Z248.719° W2025-05-07 18:32:41.869Z285.24° WNW25.866°2025-05-07 18:36:41.869Z354.551° N
6 mins2025-05-08 03:03:41.869Z13.675° NNE2025-05-08 03:06:41.869Z76.103° E26.182°2025-05-08 03:09:41.869Z123.311° SE
5 mins2025-05-08 04:43:41.869Z295.024° NW2025-05-08 04:45:41.869Z258.361° W20.834°2025-05-08 04:48:41.869Z212.155° SW
|